TimeHST,TemperatureF,Dew PointF,Humidity,Sea Level PressureIn,VisibilityMPH,Wind Direction,Wind SpeedMPH,Gust SpeedMPH,PrecipitationIn,Events,Conditions,WindDirDegrees,DateUTC
12:54 AM,77.0,66.9,71,29.99,10.0,SW,11.5,-,N/A,,Mostly Cloudy,220,2012-12-03 10:54:00
1:34 AM,77.0,68.0,74,29.97,10.0,South,11.5,-,N/A,,Overcast,190,2012-12-03 11:34:00
1:47 AM,77.0,69.8,78,29.97,10.0,SSW,13.8,-,N/A,,Overcast,200,2012-12-03 11:47:00
1:54 AM,77.0,70.0,79,29.98,10.0,SSW,15.0,-,N/A,,Overcast,200,2012-12-03 11:54:00
2:54 AM,75.9,70.0,82,29.96,10.0,SSW,15.0,-,N/A,,Overcast,200,2012-12-03 12:54:00
3:54 AM,75.9,71.1,85,29.94,10.0,SSW,16.1,-,N/A,,Mostly Cloudy,210,2012-12-03 13:54:00
4:54 AM,75.9,71.1,85,29.94,10.0,SSW,17.3,-,N/A,,Clear,210,2012-12-03 14:54:00
5:54 AM,75.0,72.0,90,29.95,10.0,SSW,15.0,-,N/A,,Partly Cloudy,200,2012-12-03 15:54:00
6:54 AM,75.0,72.0,90,29.96,10.0,SSW,16.1,-,N/A,,Partly Cloudy,210,2012-12-03 16:54:00
7:54 AM,77.0,72.0,84,29.96,10.0,SSW,20.7,27.6,N/A,,Clear,210,2012-12-03 17:54:00
8:54 AM,81.0,70.0,69,29.99,10.0,SSW,17.3,23.0,N/A,,Scattered Clouds,210,2012-12-03 18:54:00
9:54 AM,82.0,71.1,69,30.01,10.0,South,16.1,20.7,N/A,,Scattered Clouds,190,2012-12-03 19:54:00
10:54 AM,82.9,72.0,69,30.00,10.0,SSW,18.4,-,0.00,,Scattered Clouds,210,2012-12-03 20:54:00
11:54 AM,84.0,71.1,65,29.98,10.0,SSW,18.4,-,N/A,,Partly Cloudy,200,2012-12-03 21:54:00
12:54 PM,84.0,72.0,67,29.96,10.0,South,17.3,-,N/A,,Scattered Clouds,180,2012-12-03 22:54:00
1:54 PM,84.9,71.1,63,29.93,10.0,South,19.6,-,N/A,,Scattered Clouds,180,2012-12-03 23:54:00
2:54 PM,82.0,70.0,67,29.92,10.0,SSW,20.7,25.3,N/A,,Scattered Clouds,200,2012-12-04 00:54:00
3:54 PM,82.9,71.1,67,29.94,10.0,SSW,16.1,25.3,N/A,,Scattered Clouds,200,2012-12-04 01:54:00
4:54 PM,80.1,68.0,67,29.96,10.0,SSW,17.3,-,N/A,,Scattered Clouds,210,2012-12-04 02:54:00
5:54 PM,79.0,68.0,69,29.97,10.0,SW,8.1,-,N/A,,Mostly Cloudy,220,2012-12-04 03:54:00
6:54 PM,78.1,66.9,68,29.99,10.0,South,6.9,-,N/A,,Overcast,190,2012-12-04 04:54:00
7:54 PM,77.0,68.0,74,30.01,10.0,South,4.6,-,N/A,,Overcast,190,2012-12-04 05:54:00
8:54 PM,75.9,69.1,79,30.01,10.0,South,6.9,-,N/A,,Mostly Cloudy,180,2012-12-04 06:54:00
9:54 PM,75.0,70.0,84,30.02,10.0,SSW,6.9,-,N/A,,Partly Cloudy,200,2012-12-04 07:54:00
10:54 PM,75.0,70.0,84,30.03,10.0,SSE,4.6,-,N/A,,Clear,160,2012-12-04 08:54:00
11:54 PM,73.0,69.1,87,30.02,10.0,SSE,4.6,-,N/A,,Clear,160,2012-12-04 09:54:00